Regional Weather Roundup
Issued by NWS

Home | Current Version | Previous Version | Text Only | Print | Product List | Glossary On
Versions: 1 2 3 4 5 6 7 8 9 10 11 12 13 14 15 16 17 18 19 20 21 22 23 24 25 26 27 28 29 30 31 32 33 34 35 36 37 38 39 40 41 42 43 44 45 46 47 48 49 50
000
ASUS43 KDTX 261910
RWRMI
MICHIGAN HOURLY REGIONAL WEATHER ROUNDUP
NATIONAL WEATHER SERVICE DETROIT/PONTIAC MI
200 PM EST FRI DEC 26 2014

NOTE: "FAIR" INDICATES FEW OR NO CLOUDS BELOW 12,000 FEET WITH NO
SIGNIFICANT WEATHER AND/OR OBSTRUCTION TO VISIBILITY.

MIZ047>049-052>055-059>063-066>070-074>076-081>083-262000-
SOUTHEAST LOWER MICHIGAN

CITY           SKY/WX    TMP DP  RH WIND       PRES   REMARKS
ADRIAN           N/A     44  37  76 SW15      30.08F
ALMA           PTSUNNY   45  36  72 SW9       30.01F
ANN ARBOR        N/A     45  36  70 SW13      30.05F
BAD AXE        CLOUDY    42  37  82 W10       30.03F
DETROIT CITY     N/A     49  35  58 SW13      30.07F
DETROIT        PTSUNNY   45  36  70 S12       30.07F
FLINT            N/A     48  36  63 SW13      30.04F
GROSSE ILE       N/A     43  37  81 S12       30.06F
HILLSDALE        N/A     46  38  73 SW10      30.05S
HOWELL           N/A     46  35  67 SW9       30.03S

CITY           SKY/WX    TMP DP  RH WIND       PRES   REMARKS
JACKSON          N/A     47  35  63 S15       30.04F
LAMBERTVILLE     N/A     46  36  66 SW8G16    30.09S
LANSING          N/A     47  35  63 SW10      30.03F
LAPEER         NOT AVBL
MASON            N/A     45  35  66 SW9       30.03S
MONROE           N/A     46  37  71 SW13      30.07S
MT. CLEMENS    MOSUNNY   46  38  73 S9        30.04F
PONTIAC          N/A     44  35  70 S12       30.03F
PORT HOPE        N/A     41  33  73 SW3       30.02F
PORT HURON       N/A     45  36  70 S9        30.06S
TRI CITIES     CLOUDY    44  36  73 W7        30.02F
YPSILANTI        N/A     48  36  63 SW14      30.07F
$$
MIZ043>046-050>051-056>058-064>065-071>073-077>080-262000-
SOUTHWEST LOWER MICHIGAN

CITY           SKY/WX    TMP DP  RH WIND       PRES   REMARKS
BATTLE CREEK     N/A     47  36  65 SW13      30.03F
BENTON HARBOR    N/A     50  37  61 SW16      30.02F
BIG RAPIDS     CLOUDY    39  37  90 S5        29.98F
COLDWATER        N/A     48  36  64 SW9G20    30.04S
HOLLAND          N/A     47  36  65 SW16G23   30.02F
GRAND RAPIDS     N/A     48  36  63 SW13      30.01F
KALAMAZOO        N/A     49  36  61 SW13      30.04S
MARSHALL         N/A     46  36  68 SW9       30.03S
MUSKEGON       PTSUNNY   44  36  73 S20G25    30.01S
$$
MIZ016>042-262000-
NORTHERN LOWER MICHIGAN

CITY           SKY/WX    TMP DP  RH WIND       PRES   REMARKS
ALPENA         CLOUDY    39  33  79 SW6       30.00F
BEAVER ISLAND  CLOUDY    39  37  91 S3        29.96F
BELLAIRE       CLOUDY    41  35  79 S5        29.97F
CADILLAC       CLOUDY    37  34  91 S3        29.95F
CHARLEVOIX     CLOUDY    40  36  85 S7        29.99F
FRANKFORT      CLOUDY    41  38  88 SW8       29.96F
GAYLORD        CLOUDY    35  33  92 S6        29.96F
GRAYLING       CLOUDY    37  34  88 CALM      29.98F
HARBOR SPRINGS CLOUDY    39  35  85 CALM      29.97F
HOUGHTON LAKE  CLOUDY    37  33  85 S5        29.98F
MANISTEE       CLOUDY    43  36  75 SW7       29.98R
OSCODA         CLOUDY    39  33  81 SW9       30.01S
PELLSTON       CLOUDY    39  34  82 S5        29.97F
TRAVERSE CITY  CLOUDY    42  35  76 S5        29.96F
$$
MIZ007>008-015-262000-
EASTERN UPPER MICHIGAN

CITY           SKY/WX    TMP DP  RH WIND       PRES   REMARKS
KINROSS        CLOUDY    36  36 100 CALM      29.96S
MACKINAC ISLAN CLOUDY    39  37  92 SW6       29.96S
NEWBERRY       CLOUDY    33  32  96 NW5       29.96S FOG
S. S. MARIE    CLOUDY    35  33  92 CALM      29.96F FOG
$$
MIZ004>006-011>014-085-262000-
CENTRAL UPPER MICHIGAN

CITY           SKY/WX    TMP DP  RH WIND       PRES   REMARKS
MANISTIQUE     CLOUDY    34  34  99 CALM      29.95F
ESCANABA       CLOUDY    34  30  86 N6        29.96S
MENOMINEE      CLOUDY    37  34  87 SE3       29.95S
SAWYER-GWINN   CLOUDY    32  30  93 N5        29.96R
$$
MIZ001>003-009>011-084-262000-
WESTERN UPPER MICHIGAN

CITY           SKY/WX    TMP DP  RH WIND       PRES   REMARKS
IRON MOUNTAIN  CLOUDY    33  30  88 N6        29.94S
HOUGHTON       CLOUDY    33  26  75 NE5       29.98S
COPPER HARBOR    N/A     36  26  67 NE8       29.99S
IRONWOOD       CLOUDY    30  28  93 N6        29.95F
$$

ABBREVIATIONS USED IN REMARKS
   TC - TEMPERATURE IN CELSIUS
  WCI - WIND CHILL INDEX
   HX - HEAT INDEX
  VSB - VISIBILITY



USA.gov is the U.S. government's official web portal to all federal, state and local government web resources and services.